Location: Gu�tanj
(46.5431°N, 14.9692°E)
Time: 14:56:21
(UTC+00:00)

ERBS - Pass Details

Date: 03 March 2021
Orbit: 407 x 412 km, 57.0° (Epoch: 19 April)

Event Time Altitude Azimuth Distance (km) Brightness Sun altitude
Rises 17:17:20 0° 242° (WSW) 2,351 7.4 -5.7°
Reaches altitude 10° 17:19:27 10° 247° (WSW) 1,490 6.4 -6.0°
Maximum altitude 17:22:43 53° 326° (NW) 517 2.9 -6.6°
Drops below altitude 10° 17:26:00 10° 44° (NE) 1,495 4.6 -7.1°
Enters shadow 17:27:10 - 48° (NE) 1,974 5.2 -7.4°
